This is the latest recevied weather packets stored in our database for station/object WY1B. If no packets are shown the sender has not sent any weather packets the latest 10 day(s).
| Time | Temp. | Humidity | Pressure | Rain* | Wind** | Luminosity | Snow |
|---|---|---|---|---|---|---|---|
| 1787922594 | 32.22° C | 34% | 1005.7 hPa | 0 mm | - | 6 W/m² | - |
| 1787922293 | 32.22° C | 36% | 1005.8 hPa | 0 mm | - | 4 W/m² | - |
| 1787921989 | 32.78° C | 34% | 1005.6 hPa | 0 mm | - | 2 W/m² | - |
| 1787921685 | 32.78° C | 34% | 1005.6 hPa | 0 mm | - | 1 W/m² | - |
| 1787921384 | 32.78° C | 34% | 1005.6 hPa | 0 mm | - | 1 W/m² | - |
| 1787921081 | 33.33° C | 34% | 1005.5 hPa | 0 mm | - | 0 W/m² | - |
| 1787920780 | 33.33° C | 31% | 1005.2 hPa | 0 mm | - | 0 W/m² | - |
| 1787920480 | 33.33° C | 31% | 1005 hPa | 0 mm | - | 0 W/m² | - |
| 1787920177 | 33.33° C | 32% | 1005.1 hPa | 0 mm | - | 0 W/m² | - |
| 1787919872 | 33.33° C | 31% | 1005.2 hPa | 0 mm | - | 0 W/m² | - |
| 1787919571 | 33.33° C | 31% | 1005.2 hPa | 0 mm | - | 0 W/m² | - |
| 1787919267 | 33.89° C | 31% | 1005.2 hPa | 0 mm | - | 0 W/m² | - |
| 1787918962 | 33.89° C | 30% | 1005 hPa | 0 mm | - | 0 W/m² | - |
| 1787918657 | 33.89° C | 30% | 1004.9 hPa | 0 mm | - | 0 W/m² | - |
| 1787918355 | 33.33° C | 31% | 1004.7 hPa | 0 mm | - | 0 W/m² | - |
| 1787918050 | 33.33° C | 31% | 1004.8 hPa | 0 mm | - | 0 W/m² | - |
| 1787917745 | 33.33° C | 33% | 1004.8 hPa | 0 mm | - | 0 W/m² | - |
| 1787917441 | 33.33° C | 30% | 1005 hPa | 0 mm | - | 0 W/m² | - |
| 1787917136 | 33.33° C | 30% | 1004.7 hPa | 0 mm | - | 0 W/m² | - |
| 1787916831 | 33.33° C | 30% | 1004.9 hPa | 0 mm | - | 0 W/m² | - |
| 1787916530 | 33.33° C | 30% | 1005.1 hPa | 0 mm | - | 0 W/m² | - |
| 1787916226 | 33.33° C | 30% | 1005 hPa | 0 mm | - | 0 W/m² | - |
| 1787915921 | 33.33° C | 30% | 1004.9 hPa | 0 mm | - | 0 W/m² | - |
| 1787915617 | 33.33° C | 30% | 1004.9 hPa | 0 mm | - | 0 W/m² | - |
| 1787915316 | 33.33° C | 30% | 1004.9 hPa | 0 mm | - | 0 W/m² | - |
* Rain latest hour (hover to see other rain measurements)
** Current wind speed in m/s (hover to see current wind gust speed)